Starlink 11492

operational
NORAD ID: 62224 Int'l Des: 2024-231 Owner: SPXS Country: US Constellation: starlink
LEOCIRCULAR

关于 Starlink 11492

正在加载描述...

实时位置

正在加载3D地球...

即将过境

高度历史

Altitude vs Time

uPlot chart will show altitude changes over time

两行轨道根数

1 62224U 24231G 26036.69827220 .00472941 00000-0 36572-2 0 9993
2 62224 53.1569 259.2199 0001092 108.3624 251.7513 15.69927659 68388
Epoch: Feb 5, 2026 • Age: 8 hours

当前状态

高度 359.6 km
速度 7.69 km/s
星下点 -0.98°S, 114.88°E
发射日期 Dec 5, 2024
运行时间 1.1 years
类型 internet

技术详情

分类 Payload
质量 960.00 kg
干质量 910.00 kg
总质量 960.00 kg
长度 0.30 m
直径 4.10 m
跨度 29.00 m
形状 Box + pan
制造商 SPXS
平台类型 Starlink V2MD
阶段状态 In Orbit
所有者/国家 SPXS/US

大型星座

Loading constellations...